Location: McFarlands Corners
(41.4117°N, 81.3382°W)
Time: 16:38:26
(UTC+00:00)

SR - Pass Details

Date: 19 February 2026
Orbit: 572 x 849 km, 66.7° (Epoch: 12 March)

Event Time Altitude Azimuth Distance (km) Brightness Sun altitude
Rises 10:12:55 0° 233° (SW) 2,769 - -23.5°
Reaches altitude 10° 10:15:16 10° 243° (WSW) 1,886 - -23.1°
Maximum altitude 10:19:05 33° 308° (NW) 1,005 - -22.4°
Exits shadow 10:20:23 27° 342° (NNW) 1,154 ? -22.1°
Drops below altitude 10° 10:23:05 10° 13° (NNE) 1,978 ? -21.6°
Sets 10:25:37 0° 23° (NNE) 2,928 ? -21.1°
